Location: Newark
(51.3000°N, 178.2000°W)
Time: 01:59:23
(UTC+00:00)

ISS - Pass Details

Date: 09 May 2021
Orbit: 417 x 422 km, 51.6° (Epoch: 15 June)

Event Time Altitude Azimuth Distance (km) Brightness Sun altitude
Exits shadow 12:25:34 26° 94° (E) 874 -2.1 -20.7°
Drops below altitude 10° 12:27:16 10° 81° (E) 1,510 -0.7 -20.7°
Sets 12:29:24 0° 76° (ENE) 2,378 0.4 -20.6°
